"Sample Date","Sample Time","Sensor Name","Sample Value","Units","Flow Rate","Sample Interval","Sample Volume","Laser Status","Number Channels","Micron Size 0","Counts/Channel 0","Micron Size 1","Counts/Channel 1","Micron Size 2","Counts/Channel 2","Micron Size 3","Counts/Channel 3","Micron Size 4","Counts/Channel 4","Micron Size 5","Counts/Channel 5","Micron Size 6","Counts/Channel 6","Micron Size 7","Counts/Channel 7","Micron Size 8","Counts/Channel 8","Micron Size 9","Counts/Channel 9","Micron Size 10","Counts/Channel 10","Micron Size 11","Counts/Channel 11","Micron Size 12","Counts/Channel 12","Micron Size 13","Counts/Channel 13","Micron Size 14","Counts/Channel 14","Micron Size 15","Counts/Channel 15","Micron Size 16","Counts/Channel 16","Micron Size 17","Counts/Channel 17","Micron Size 18","Counts/Channel 18","Micron Size 19","Counts/Channel 19","Micron Size 20","Counts/Channel 20","Micron Size 21","Counts/Channel 21","Micron Size 22","Counts/Channel 22","Micron Size 23","Counts/Channel 23","Micron Size 24","Counts/Channel 24","Micron Size 25","Counts/Channel 25","Micron Size 26","Counts/Channel 26","Micron Size 27","Counts/Channel 27","Micron Size 28","Counts/Channel 28","Micron Size 29","Counts/Channel 29","Micron Size 30","Counts/Channel 30","Micron Size 31","Counts/Channel 31"
"07/11/06","23:00:02","AMMA06",88875.000,"cc",28316.152,6.00,2831.616,1,6,0.100,45811.000,0.200,36760.000,0.300,5845.000,0.500,314.000,1.000,145.000,5.000,0
"07/11/06","23:00:08","AMMA06",86185.000,"cc",28374.932,6.00,2837.493,1,6,0.100,43750.000,0.200,36135.000,0.300,5838.000,0.500,323.000,1.000,139.000,5.000,0
"07/11/06","23:00:14","AMMA06",89345.000,"cc",28311.393,6.00,2831.139,1,6,0.100,46467.000,0.200,36470.000,0.300,5977.000,0.500,283.000,1.000,148.000,5.000,0
"07/11/06","23:00:20","AMMA06",85804.000,"cc",28348.006,6.00,2834.801,1,6,0.100,43066.000,0.200,36566.000,0.300,5755.000,0.500,280.000,1.000,137.000,5.000,0
"07/11/06","23:00:26","AMMA06",86796.000,"cc",28269.955,6.00,2826.996,1,6,0.100,43728.000,0.200,36742.000,0.300,5862.000,0.500,330.000,1.000,134.000,5.000,0
"07/11/06","23:00:32","AMMA06",86648.000,"cc",28344.643,6.00,2834.464,1,6,0.100,43786.000,0.200,36478.000,0.300,5939.000,0.500,300.000,1.000,145.000,5.000,0
"07/11/06","23:00:38","AMMA06",88824.000,"cc",28279.057,6.00,2827.906,1,6,0.100,45545.000,0.200,36892.000,0.300,5924.000,0.500,339.000,1.000,124.000,5.000,0
"07/11/06","23:00:44","AMMA06",86776.000,"cc",28340.691,6.00,2834.069,1,6,0.100,43502.000,0.200,36779.000,0.300,6049.000,0.500,317.000,1.000,129.000,5.000,0
"07/11/06","23:00:50","AMMA06",86996.000,"cc",28346.176,6.00,2834.618,1,6,0.100,43985.000,0.200,36591.000,0.300,5983.000,0.500,303.000,1.000,134.000,5.000,0
"07/11/06","23:00:56","AMMA06",86116.000,"cc",28332.625,6.00,2833.263,1,6,0.100,42763.000,0.200,36856.000,0.300,6009.000,0.500,340.000,1.000,148.000,5.000,0
"07/11/06","23:01:02","AMMA06",85393.000,"cc",28292.113,6.00,2829.211,1,6,0.100,41932.000,0.200,36900.000,0.300,6076.000,0.500,338.000,1.000,147.000,5.000,0
"07/11/06","23:01:08","AMMA06",87175.000,"cc",28259.951,6.00,2825.995,1,6,0.100,43312.000,0.200,37267.000,0.300,6048.000,0.500,382.000,1.000,166.000,5.000,0
"07/11/06","23:01:14","AMMA06",89973.000,"cc",28324.643,6.00,2832.464,1,6,0.100,45413.000,0.200,37921.000,0.300,6111.000,0.500,349.000,1.000,179.000,5.000,0
"07/11/06","23:01:20","AMMA06",87872.000,"cc",28346.098,6.00,2834.610,1,6,0.100,43541.000,0.200,37644.000,0.300,6199.000,0.500,342.000,1.000,146.000,5.000,0
"07/11/06","23:01:26","AMMA06",86901.000,"cc",28343.832,6.00,2834.383,1,6,0.100,42462.000,0.200,37557.000,0.300,6349.000,0.500,372.000,1.000,161.000,5.000,0
"07/11/06","23:01:32","AMMA06",91095.000,"cc",28319.799,6.00,2831.980,1,6,0.100,46300.000,0.200,37931.000,0.300,6293.000,0.500,391.000,1.000,180.000,5.000,0
"07/11/06","23:01:38","AMMA06",88116.000,"cc",28324.127,6.00,2832.413,1,6,0.100,43393.000,0.200,37792.000,0.300,6438.000,0.500,341.000,1.000,151.000,5.000,1.000
"07/11/06","23:01:44","AMMA06",92043.000,"cc",28354.022,6.00,2835.402,1,6,0.100,46472.000,0.200,38615.000,0.300,6438.000,0.500,383.000,1.000,135.000,5.000,0
"07/11/06","23:01:50","AMMA06",88162.000,"cc",28276.283,6.00,2827.628,1,6,0.100,43482.000,0.200,37776.000,0.300,6353.000,0.500,374.000,1.000,177.000,5.000,0
"07/11/06","23:01:56","AMMA06",93659.000,"cc",28276.748,6.00,2827.675,1,6,0.100,48323.000,0.200,38480.000,0.300,6306.000,0.500,393.000,1.000,157.000,5.000,0
"07/11/06","23:02:02","AMMA06",94918.000,"cc",28295.494,6.00,2829.550,1,6,0.100,48873.000,0.200,39073.000,0.300,6452.000,0.500,376.000,1.000,144.000,5.000,0
"07/11/06","23:02:08","AMMA06",99836.000,"cc",28387.869,6.00,2838.787,1,6,0.100,53182.000,0.200,39520.000,0.300,6613.000,0.500,358.000,1.000,163.000,5.000,0
"07/11/06","23:02:14","AMMA06",95176.000,"cc",28291.602,6.00,2829.160,1,6,0.100,49192.000,0.200,38867.000,0.300,6542.000,0.500,399.000,1.000,176.000,5.000,0
"07/11/06","23:02:20","AMMA06",91560.000,"cc",28289.664,6.00,2828.967,1,6,0.100,46234.000,0.200,38307.000,0.300,6478.000,0.500,361.000,1.000,180.000,5.000,0
"07/11/06","23:02:26","AMMA06",93771.000,"cc",28328.848,6.00,2832.885,1,6,0.100,48003.000,0.200,38711.000,0.300,6520.000,0.500,379.000,1.000,157.000,5.000,1.000
"07/11/06","23:02:32","AMMA06",87746.000,"cc",28368.262,6.00,2836.826,1,6,0.100,42351.000,0.200,38349.000,0.300,6509.000,0.500,370.000,1.000,167.000,5.000,0
"07/11/06","23:02:38","AMMA06",87490.000,"cc",28375.869,6.00,2837.587,1,6,0.100,42290.000,0.200,38215.000,0.300,6464.000,0.500,367.000,1.000,154.000,5.000,0
"07/11/06","23:02:44","AMMA06",86502.000,"cc",28278.248,6.00,2827.825,1,6,0.100,41839.000,0.200,37680.000,0.300,6435.000,0.500,373.000,1.000,175.000,5.000,0
"07/11/06","23:02:50","AMMA06",85659.000,"cc",28306.664,6.00,2830.667,1,6,0.100,40699.000,0.200,37979.000,0.300,6452.000,0.500,381.000,1.000,148.000,5.000,0
"07/11/06","23:02:56","AMMA06",85920.000,"cc",28243.955,6.00,2824.396,1,6,0.100,40474.000,0.200,38321.000,0.300,6601.000,0.500,350.000,1.000,174.000,5.000,0
"07/11/06","23:03:02","AMMA06",87269.000,"cc",28356.473,6.00,2835.648,1,6,0.100,41982.000,0.200,38203.000,0.300,6497.000,0.500,399.000,1.000,188.000,5.000,0
"07/11/06","23:03:08","AMMA06",90985.000,"cc",28323.426,6.00,2832.343,1,6,0.100,45135.000,0.200,38886.000,0.300,6466.000,0.500,357.000,1.000,141.000,5.000,0
"07/11/06","23:03:14","AMMA06",86715.000,"cc",28316.631,6.00,2831.663,1,6,0.100,41258.000,0.200,38192.000,0.300,6774.000,0.500,348.000,1.000,142.000,5.000,1.000
"07/11/06","23:03:20","AMMA06",86453.000,"cc",28301.117,6.00,2830.112,1,6,0.100,41427.000,0.200,37978.000,0.300,6495.000,0.500,396.000,1.000,157.000,5.000,0
"07/11/06","23:03:26","AMMA06",87820.000,"cc",28297.926,6.00,2829.793,1,6,0.100,42302.000,0.200,38535.000,0.300,6471.000,0.500,360.000,1.000,152.000,5.000,0
"07/11/06","23:03:32","AMMA06",89273.000,"cc",28311.143,6.00,2831.115,1,6,0.100,43633.000,0.200,38571.000,0.300,6554.000,0.500,356.000,1.000,159.000,5.000,0
"07/11/06","23:03:38","AMMA06",90266.000,"cc",28407.588,6.00,2840.759,1,6,0.100,44697.000,0.200,38345.000,0.300,6702.000,0.500,371.000,1.000,151.000,5.000,0
"07/11/06","23:03:44","AMMA06",119297.000,"cc",28269.773,6.00,2826.978,1,6,0.100,68940.000,0.200,43043.000,0.300,6786.000,0.500,372.000,1.000,156.000,5.000,0
"07/11/06","23:03:50","AMMA06",114691.000,"cc",28321.873,6.00,2832.188,1,6,0.100,65422.000,0.200,41991.000,0.300,6764.000,0.500,354.000,1.000,160.000,5.000,0
"07/11/06","23:03:56","AMMA06",186183.000,"cc",28374.697,6.00,2837.470,1,6,0.100,125248.000,0.200,52775.000,0.300,7650.000,0.500,361.000,1.000,149.000,5.000,0
"07/11/06","23:04:02","AMMA06",119984.000,"cc",28269.398,6.00,2826.940,1,6,0.100,69805.000,0.200,42837.000,0.300,6841.000,0.500,339.000,1.000,162.000,5.000,0
"07/11/06","23:04:08","AMMA06",86199.000,"cc",28302.408,6.00,2830.241,1,6,0.100,41384.000,0.200,37813.000,0.300,6479.000,0.500,373.000,1.000,150.000,5.000,0
"07/11/06","23:04:14","AMMA06",84503.000,"cc",28312.986,6.00,2831.299,1,6,0.100,40043.000,0.200,37572.000,0.300,6327.000,0.500,384.000,1.000,177.000,5.000,0
"07/11/06","23:04:20","AMMA06",84749.000,"cc",28328.465,6.00,2832.847,1,6,0.100,40480.000,0.200,37466.000,0.300,6288.000,0.500,352.000,1.000,163.000,5.000,0
"07/11/06","23:04:26","AMMA06",87933.000,"cc",28334.168,6.00,2833.417,1,6,0.100,43337.000,0.200,37809.000,0.300,6255.000,0.500,361.000,1.000,171.000,5.000,0
"07/11/06","23:04:32","AMMA06",86605.000,"cc",28332.256,6.00,2833.226,1,6,0.100,41862.000,0.200,37878.000,0.300,6364.000,0.500,345.000,1.000,156.000,5.000,0
"07/11/06","23:04:38","AMMA06",89248.000,"cc",28388.807,6.00,2838.881,1,6,0.100,44240.000,0.200,38168.000,0.300,6378.000,0.500,321.000,1.000,141.000,5.000,0
"07/11/06","23:04:44","AMMA06",164247.000,"cc",28323.389,6.00,2832.339,1,6,0.100,106387.000,0.200,49990.000,0.300,7381.000,0.500,346.000,1.000,143.000,5.000,0
"07/11/06","23:04:50","AMMA06",144981.000,"cc",28225.152,6.00,2822.515,1,6,0.100,91116.000,0.200,46467.000,0.300,6948.000,0.500,318.000,1.000,132.000,5.000,0
"07/11/06","23:04:56","AMMA06",92844.000,"cc",28253.125,6.00,2825.313,1,6,0.100,47748.000,0.200,38235.000,0.300,6426.000,0.500,304.000,1.000,131.000,5.000,0
"07/11/06","23:05:02","AMMA06",97039.000,"cc",28363.027,6.00,2836.303,1,6,0.100,51177.000,0.200,39061.000,0.300,6372.000,0.500,280.000,1.000,149.000,5.000,0
"07/11/06","23:05:08","AMMA06",91598.000,"cc",28319.535,6.00,2831.954,1,6,0.100,46614.000,0.200,38390.000,0.300,6119.000,0.500,323.000,1.000,152.000,5.000,0
"07/11/06","23:05:14","AMMA06",87726.000,"cc",28288.861,6.00,2828.886,1,6,0.100,43329.000,0.200,37846.000,0.300,6061.000,0.500,348.000,1.000,142.000,5.000,0
"07/11/06","23:05:20","AMMA06",85371.000,"cc",28333.740,6.00,2833.374,1,6,0.100,41679.000,0.200,37190.000,0.300,6025.000,0.500,340.000,1.000,137.000,5.000,0
"07/11/06","23:05:26","AMMA06",84781.000,"cc",28337.436,6.00,2833.744,1,6,0.100,41190.000,0.200,37087.000,0.300,6035.000,0.500,319.000,1.000,150.000,5.000,0
"07/11/06","23:05:32","AMMA06",84641.000,"cc",28307.969,6.00,2830.797,1,6,0.100,41221.000,0.200,36856.000,0.300,6120.000,0.500,310.000,1.000,134.000,5.000,0
"07/11/06","23:05:38","AMMA06",84933.000,"cc",28342.330,6.00,2834.233,1,6,0.100,41510.000,0.200,36913.000,0.300,6086.000,0.500,299.000,1.000,125.000,5.000,0
"07/11/06","23:05:44","AMMA06",85873.000,"cc",28301.938,6.00,2830.194,1,6,0.100,42522.000,0.200,36855.000,0.300,6045.000,0.500,290.000,1.000,161.000,5.000,0
"07/11/06","23:05:50","AMMA06",85051.000,"cc",28301.303,6.00,2830.130,1,6,0.100,41450.000,0.200,37207.000,0.300,5948.000,0.500,323.000,1.000,123.000,5.000,0
"07/11/06","23:05:56","AMMA06",85026.000,"cc",28376.850,6.00,2837.685,1,6,0.100,41316.000,0.200,37147.000,0.300,6090.000,0.500,345.000,1.000,128.000,5.000,0
"07/11/06","23:06:02","AMMA06",93121.000,"cc",28333.756,6.00,2833.376,1,6,0.100,48386.000,0.200,38274.000,0.300,5973.000,0.500,333.000,1.000,155.000,5.000,0
"07/11/06","23:06:08","AMMA06",84993.000,"cc",28280.356,6.00,2828.036,1,6,0.100,41185.000,0.200,37257.000,0.300,6051.000,0.500,344.000,1.000,156.000,5.000,0
"07/11/06","23:06:14","AMMA06",85143.000,"cc",28283.943,6.00,2828.395,1,6,0.100,40780.000,0.200,37597.000,0.300,6240.000,0.500,360.000,1.000,166.000,5.000,0
"07/11/06","23:06:20","AMMA06",84919.000,"cc",28330.727,6.00,2833.073,1,6,0.100,40467.000,0.200,37733.000,0.300,6239.000,0.500,343.000,1.000,137.000,5.000,0
"07/11/06","23:06:26","AMMA06",84981.000,"cc",28261.846,6.00,2826.185,1,6,0.100,40628.000,0.200,37502.000,0.300,6354.000,0.500,327.000,1.000,170.000,5.000,0
"07/11/06","23:06:32","AMMA06",85096.000,"cc",28316.315,6.00,2831.632,1,6,0.100,40147.000,0.200,38070.000,0.300,6370.000,0.500,348.000,1.000,161.000,5.000,0
"07/11/06","23:06:38","AMMA06",85662.000,"cc",28380.004,6.00,2838.001,1,6,0.100,40498.000,0.200,38147.000,0.300,6521.000,0.500,328.000,1.000,168.000,5.000,0
"07/11/06","23:06:44","AMMA06",85258.000,"cc",28321.551,6.00,2832.155,1,6,0.100,39933.000,0.200,38315.000,0.300,6521.000,0.500,352.000,1.000,137.000,5.000,0
"07/11/06","23:06:50","AMMA06",85205.000,"cc",28353.424,6.00,2835.343,1,6,0.100,40105.000,0.200,38202.000,0.300,6388.000,0.500,360.000,1.000,150.000,5.000,0
"07/11/06","23:06:56","AMMA06",85171.000,"cc",28260.996,6.00,2826.100,1,6,0.100,39903.000,0.200,38296.000,0.300,6480.000,0.500,332.000,1.000,160.000,5.000,0
"07/11/06","23:07:02","AMMA06",85685.000,"cc",28329.588,6.00,2832.959,1,6,0.100,40149.000,0.200,38622.000,0.300,6430.000,0.500,348.000,1.000,136.000,5.000,0
"07/11/06","23:07:08","AMMA06",85363.000,"cc",28302.086,6.00,2830.209,1,6,0.100,40272.000,0.200,38150.000,0.300,6428.000,0.500,380.000,1.000,133.000,5.000,0
"07/11/06","23:07:14","AMMA06",85991.000,"cc",28320.416,6.00,2832.042,1,6,0.100,40415.000,0.200,38509.000,0.300,6522.000,0.500,369.000,1.000,176.000,5.000,0
"07/11/06","23:07:20","AMMA06",85200.000,"cc",28330.848,6.00,2833.085,1,6,0.100,39758.000,0.200,38419.000,0.300,6511.000,0.500,339.000,1.000,173.000,5.000,0
"07/11/06","23:07:26","AMMA06",85666.000,"cc",28346.074,6.00,2834.608,1,6,0.100,40158.000,0.200,38285.000,0.300,6727.000,0.500,336.000,1.000,160.000,5.000,0
"07/11/06","23:07:32","AMMA06",84893.000,"cc",28301.787,6.00,2830.179,1,6,0.100,39976.000,0.200,37872.000,0.300,6492.000,0.500,367.000,1.000,186.000,5.000,0
"07/11/06","23:07:38","AMMA06",85517.000,"cc",28286.690,6.00,2828.669,1,6,0.100,40252.000,0.200,38322.000,0.300,6418.000,0.500,366.000,1.000,159.000,5.000,0
"07/11/06","23:07:44","AMMA06",85588.000,"cc",28287.459,6.00,2828.746,1,6,0.100,40587.000,0.200,38060.000,0.300,6454.000,0.500,363.000,1.000,124.000,5.000,0
"07/11/06","23:07:50","AMMA06",85673.000,"cc",28368.100,6.00,2836.810,1,6,0.100,40685.000,0.200,37942.000,0.300,6527.000,0.500,362.000,1.000,157.000,5.000,0
"07/11/06","23:07:56","AMMA06",86157.000,"cc",28305.346,6.00,2830.535,1,6,0.100,40755.000,0.200,38393.000,0.300,6488.000,0.500,374.000,1.000,147.000,5.000,0
"07/11/06","23:08:02","AMMA06",86097.000,"cc",28345.856,6.00,2834.586,1,6,0.100,40764.000,0.200,38247.000,0.300,6577.000,0.500,338.000,1.000,171.000,5.000,0
"07/11/06","23:08:08","AMMA06",86253.000,"cc",28267.898,6.00,2826.790,1,6,0.100,40935.000,0.200,38330.000,0.300,6504.000,0.500,344.000,1.000,140.000,5.000,0
"07/11/06","23:08:14","AMMA06",85880.000,"cc",28280.449,6.00,2828.045,1,6,0.100,41010.000,0.200,37918.000,0.300,6437.000,0.500,360.000,1.000,155.000,5.000,0
"07/11/06","23:08:20","AMMA06",85809.000,"cc",28312.627,6.00,2831.263,1,6,0.100,41017.000,0.200,37882.000,0.300,6407.000,0.500,358.000,1.000,145.000,5.000,0
"07/11/06","23:08:26","AMMA06",85773.000,"cc",28326.895,6.00,2832.690,1,6,0.100,41069.000,0.200,37778.000,0.300,6415.000,0.500,328.000,1.000,183.000,5.000,0
"07/11/06","23:08:32","AMMA06",85522.000,"cc",28309.815,6.00,2830.982,1,6,0.100,40512.000,0.200,38148.000,0.300,6360.000,0.500,341.000,1.000,161.000,5.000,0
"07/11/06","23:08:38","AMMA06",85516.000,"cc",28300.414,6.00,2830.042,1,6,0.100,40648.000,0.200,37940.000,0.300,6387.000,0.500,395.000,1.000,146.000,5.000,0
"07/11/06","23:08:44","AMMA06",84787.000,"cc",28349.580,6.00,2834.958,1,6,0.100,39671.000,0.200,38329.000,0.300,6289.000,0.500,361.000,1.000,137.000,5.000,0
"07/11/06","23:08:50","AMMA06",84218.000,"cc",28364.010,6.00,2836.401,1,6,0.100,39417.000,0.200,38047.000,0.300,6272.000,0.500,337.000,1.000,145.000,5.000,0
"07/11/06","23:08:56","AMMA06",84760.000,"cc",28278.652,6.00,2827.866,1,6,0.100,39427.000,0.200,38469.000,0.300,6373.000,0.500,344.000,1.000,147.000,5.000,0
"07/11/06","23:09:02","AMMA06",84525.000,"cc",28293.637,6.00,2829.364,1,6,0.100,39551.000,0.200,38151.000,0.300,6333.000,0.500,348.000,1.000,142.000,5.000,0
"07/11/06","23:09:08","AMMA06",84634.000,"cc",28336.783,6.00,2833.679,1,6,0.100,39906.000,0.200,37742.000,0.300,6464.000,0.500,374.000,1.000,148.000,5.000,0
"07/11/06","23:09:14","AMMA06",85247.000,"cc",28264.803,6.00,2826.481,1,6,0.100,40035.000,0.200,38413.000,0.300,6294.000,0.500,335.000,1.000,170.000,5.000,0
"07/11/06","23:09:20","AMMA06",84533.000,"cc",28316.131,6.00,2831.613,1,6,0.100,39725.000,0.200,37879.000,0.300,6393.000,0.500,335.000,1.000,201.000,5.000,0
"07/11/06","23:09:26","AMMA06",84840.000,"cc",28306.289,6.00,2830.629,1,6,0.100,40020.000,0.200,37883.000,0.300,6396.000,0.500,364.000,1.000,177.000,5.000,0
"07/11/06","23:09:32","AMMA06",84618.000,"cc",28391.615,6.00,2839.162,1,6,0.100,39747.000,0.200,37906.000,0.300,6450.000,0.500,330.000,1.000,185.000,5.000,0
"07/11/06","23:09:38","AMMA06",84809.000,"cc",28332.738,6.00,2833.274,1,6,0.100,39788.000,0.200,37989.000,0.300,6495.000,0.500,392.000,1.000,145.000,5.000,0
"07/11/06","23:09:44","AMMA06",84949.000,"cc",28323.012,6.00,2832.301,1,6,0.100,39711.000,0.200,38266.000,0.300,6405.000,0.500,397.000,1.000,170.000,5.000,0
"07/11/06","23:09:50","AMMA06",85031.000,"cc",28294.453,6.00,2829.446,1,6,0.100,39825.000,0.200,38048.000,0.300,6587.000,0.500,391.000,1.000,180.000,5.000,0
"07/11/06","23:09:56","AMMA06",84725.000,"cc",28296.414,6.00,2829.642,1,6,0.100,39853.000,0.200,37800.000,0.300,6580.000,0.500,331.000,1.000,161.000,5.000,0
"07/11/06","23:10:02","AMMA06",84867.000,"cc",28304.430,6.00,2830.443,1,6,0.100,39598.000,0.200,38165.000,0.300,6574.000,0.500,370.000,1.000,159.000,5.000,1.000
"07/11/06","23:10:08","AMMA06",85233.000,"cc",28303.854,6.00,2830.386,1,6,0.100,40032.000,0.200,38139.000,0.300,6526.000,0.500,368.000,1.000,168.000,5.000,0
"07/11/06","23:10:14","AMMA06",86032.000,"cc",28300.434,6.00,2830.044,1,6,0.100,40672.000,0.200,38197.000,0.300,6630.000,0.500,370.000,1.000,163.000,5.000,0
"07/11/06","23:10:20","AMMA06",85548.000,"cc",28329.633,6.00,2832.963,1,6,0.100,40037.000,0.200,38266.000,0.300,6712.000,0.500,391.000,1.000,142.000,5.000,0
"07/11/06","23:10:26","AMMA06",86061.000,"cc",28318.736,6.00,2831.874,1,6,0.100,40422.000,0.200,38276.000,0.300,6829.000,0.500,376.000,1.000,158.000,5.000,0
"07/11/06","23:10:32","AMMA06",85710.000,"cc",28336.318,6.00,2833.632,1,6,0.100,40286.000,0.200,38320.000,0.300,6527.000,0.500,405.000,1.000,172.000,5.000,0
"07/11/06","23:10:38","AMMA06",85932.000,"cc",28302.420,6.00,2830.242,1,6,0.100,40625.000,0.200,38171.000,0.300,6598.000,0.500,386.000,1.000,152.000,5.000,0
"07/11/06","23:10:44","AMMA06",85725.000,"cc",28346.455,6.00,2834.646,1,6,0.100,40100.000,0.200,38256.000,0.300,6812.000,0.500,381.000,1.000,175.000,5.000,1.000
"07/11/06","23:10:50","AMMA06",85496.000,"cc",28306.104,6.00,2830.611,1,6,0.100,40179.000,0.200,38172.000,0.300,6611.000,0.500,372.000,1.000,162.000,5.000,0
"07/11/06","23:10:56","AMMA06",85577.000,"cc",28255.797,6.00,2825.580,1,6,0.100,40292.000,0.200,38225.000,0.300,6532.000,0.500,367.000,1.000,161.000,5.000,0
"07/11/06","23:11:02","AMMA06",85345.000,"cc",28334.129,6.00,2833.413,1,6,0.100,40119.000,0.200,38084.000,0.300,6595.000,0.500,400.000,1.000,147.000,5.000,0
"07/11/06","23:11:08","AMMA06",85686.000,"cc",28318.070,6.00,2831.807,1,6,0.100,40166.000,0.200,38363.000,0.300,6681.000,0.500,309.000,1.000,167.000,5.000,0
"07/11/06","23:11:14","AMMA06",85318.000,"cc",28366.299,6.00,2836.630,1,6,0.100,40111.000,0.200,38212.000,0.300,6502.000,0.500,356.000,1.000,137.000,5.000,0
"07/11/06","23:11:20","AMMA06",85776.000,"cc",28317.977,6.00,2831.798,1,6,0.100,40547.000,0.200,38174.000,0.300,6500.000,0.500,374.000,1.000,181.000,5.000,0
"07/11/06","23:11:26","AMMA06",85733.000,"cc",28299.750,6.00,2829.975,1,6,0.100,40016.000,0.200,38619.000,0.300,6566.000,0.500,350.000,1.000,181.000,5.000,1.000
"07/11/06","23:11:32","AMMA06",85880.000,"cc",28320.721,6.00,2832.072,1,6,0.100,40739.000,0.200,38101.000,0.300,6509.000,0.500,379.000,1.000,152.000,5.000,0
"07/11/06","23:11:38","AMMA06",85752.000,"cc",28305.215,6.00,2830.522,1,6,0.100,40364.000,0.200,38292.000,0.300,6581.000,0.500,360.000,1.000,155.000,5.000,0
"07/11/06","23:11:44","AMMA06",85023.000,"cc",28314.090,6.00,2831.409,1,6,0.100,39898.000,0.200,38010.000,0.300,6641.000,0.500,348.000,1.000,126.000,5.000,0
"07/11/06","23:11:50","AMMA06",85665.000,"cc",28268.539,6.00,2826.854,1,6,0.100,40172.000,0.200,38489.000,0.300,6496.000,0.500,342.000,1.000,166.000,5.000,0
"07/11/06","23:11:56","AMMA06",85258.000,"cc",28337.820,6.00,2833.782,1,6,0.100,40312.000,0.200,37971.000,0.300,6452.000,0.500,374.000,1.000,149.000,5.000,0
"07/11/06","23:12:02","AMMA06",85367.000,"cc",28310.926,6.00,2831.093,1,6,0.100,40105.000,0.200,38310.000,0.300,6447.000,0.500,332.000,1.000,173.000,5.000,0
"07/11/06","23:12:08","AMMA06",85742.000,"cc",28331.549,6.00,2833.155,1,6,0.100,40528.000,0.200,38224.000,0.300,6501.000,0.500,337.000,1.000,152.000,5.000,0
"07/11/06","23:12:14","AMMA06",85300.000,"cc",28290.059,6.00,2829.006,1,6,0.100,39834.000,0.200,38328.000,0.300,6592.000,0.500,372.000,1.000,174.000,5.000,0
"07/11/06","23:12:20","AMMA06",85780.000,"cc",28349.477,6.00,2834.948,1,6,0.100,40358.000,0.200,38225.000,0.300,6704.000,0.500,346.000,1.000,147.000,5.000,0
"07/11/06","23:12:26","AMMA06",85633.000,"cc",28287.654,6.00,2828.766,1,6,0.100,39688.000,0.200,38801.000,0.300,6623.000,0.500,355.000,1.000,166.000,5.000,0
"07/11/06","23:12:32","AMMA06",85017.000,"cc",28299.981,6.00,2829.998,1,6,0.100,39452.000,0.200,38418.000,0.300,6650.000,0.500,347.000,1.000,149.000,5.000,1.000
"07/11/06","23:12:38","AMMA06",84948.000,"cc",28337.861,6.00,2833.786,1,6,0.100,39490.000,0.200,38309.000,0.300,6663.000,0.500,343.000,1.000,143.000,5.000,0
"07/11/06","23:12:44","AMMA06",85331.000,"cc",28329.795,6.00,2832.980,1,6,0.100,39603.000,0.200,38595.000,0.300,6618.000,0.500,376.000,1.000,139.000,5.000,0
"07/11/06","23:12:50","AMMA06",85373.000,"cc",28306.070,6.00,2830.607,1,6,0.100,39918.000,0.200,38376.000,0.300,6558.000,0.500,376.000,1.000,145.000,5.000,0
"07/11/06","23:12:56","AMMA06",85423.000,"cc",28332.123,6.00,2833.212,1,6,0.100,39710.000,0.200,38510.000,0.300,6678.000,0.500,376.000,1.000,149.000,5.000,0
"07/11/06","23:13:02","AMMA06",84956.000,"cc",28340.719,6.00,2834.072,1,6,0.100,39884.000,0.200,37986.000,0.300,6559.000,0.500,356.000,1.000,171.000,5.000,0
"07/11/06","23:13:08","AMMA06",85213.000,"cc",28319.354,6.00,2831.936,1,6,0.100,39629.000,0.200,38366.000,0.300,6662.000,0.500,378.000,1.000,178.000,5.000,0
"07/11/06","23:13:14","AMMA06",85145.000,"cc",28248.217,6.00,2824.822,1,6,0.100,39787.000,0.200,38314.000,0.300,6512.000,0.500,384.000,1.000,148.000,5.000,0
"07/11/06","23:13:20","AMMA06",86143.000,"cc",28310.328,6.00,2831.033,1,6,0.100,40593.000,0.200,38555.000,0.300,6507.000,0.500,343.000,1.000,145.000,5.000,0
"07/11/06","23:13:26","AMMA06",89223.000,"cc",28324.568,6.00,2832.457,1,6,0.100,43606.000,0.200,38596.000,0.300,6547.000,0.500,334.000,1.000,140.000,5.000,0
"07/11/06","23:13:32","AMMA06",86056.000,"cc",28356.094,6.00,2835.610,1,6,0.100,40685.000,0.200,38317.000,0.300,6524.000,0.500,359.000,1.000,171.000,5.000,0
"07/11/06","23:13:38","AMMA06",86072.000,"cc",28313.904,6.00,2831.391,1,6,0.100,41153.000,0.200,37885.000,0.300,6513.000,0.500,371.000,1.000,150.000,5.000,0
"07/11/06","23:13:44","AMMA06",94252.000,"cc",28349.281,6.00,2834.928,1,6,0.100,48234.000,0.200,38854.000,0.300,6609.000,0.500,401.000,1.000,154.000,5.000,0
"07/11/06","23:13:50","AMMA06",86570.000,"cc",28334.889,6.00,2833.489,1,6,0.100,41723.000,0.200,37878.000,0.300,6487.000,0.500,334.000,1.000,148.000,5.000,0
"07/11/06","23:13:56","AMMA06",86347.000,"cc",28346.072,6.00,2834.607,1,6,0.100,41893.000,0.200,37459.000,0.300,6515.000,0.500,343.000,1.000,137.000,5.000,0
"07/11/06","23:14:02","AMMA06",87065.000,"cc",28265.238,6.00,2826.524,1,6,0.100,42166.000,0.200,38048.000,0.300,6367.000,0.500,332.000,1.000,152.000,5.000,0
"07/11/06","23:14:08","AMMA06",88999.000,"cc",28292.254,6.00,2829.226,1,6,0.100,44217.000,0.200,37866.000,0.300,6403.000,0.500,355.000,1.000,158.000,5.000,0
"07/11/06","23:14:14","AMMA06",87077.000,"cc",28318.934,6.00,2831.894,1,6,0.100,42804.000,0.200,37337.000,0.300,6429.000,0.500,358.000,1.000,149.000,5.000,0